Flag for Mexico Weather past 2 weeks in Campeche, Campeche, Mexico

Now
90 °F

Partly sunny.


Feels Like: 95 °F
Forecast: 81 / 95 °F
Wind: 16 mph from Southeast

Location: Aerop. Internacional Merida - Yuc

Current Time: May 26, 2015 at 11:55:30 AM

Latest Report: May 26, 2015 at 10:48 AM


Visibility: 7 mi

Pressure: 29.99 "Hg

Humidity: 52%

Dew point: 70 °F

Location of CampecheLocation

Historic Weather in Campeche — Graph

°F

Campeche temperature yesterday

Maximum temperature yesterday: 102 °F (at 2:45 PM)
Minimum temperature yesterday: 77 °F (at 4:51 AM)
Average temperature yesterday: 88 °F

Past Weeks' High & Low Weather Summary

 TemperatureHumidityPressure
High102 °F (May 11, 2:51 PM)89% (May 12, 5:44 AM)30.10 "Hg (May 12, 5:44 AM)
Low75 °F (May 13, 5:49 AM)21% (May 13, 1:50 PM)29.82 "Hg (May 11, 5:45 PM)
Average86 °F61%29.97 "Hg
* Reported May 11 10:49 AM — May 26 10:48 AM, Campeche, Weather by CustomWeather, © 2015

Note: Actual official high and low records may vary slightly from our data, if they occured in-between our weather recording intervals... More about our weather records

Advertising

Campeche weather history for previous 24 hours

 ConditionsComfort  
Time TempWeatherWind HumidityBarometerVisibility
10:48 AM
Tue, May 26
90 °FPartly sunny.16 mph52%29.99 "Hg7 mi
9:48 AM90 °FPartly sunny.24 mph59%29.98 "Hg7 mi
8:50 AM86 °FScattered clouds.17 mph66%30.00 "Hg7 mi
7:52 AM81 °FPassing clouds.14 mph79%30.01 "Hg6 mi
6:47 AM77 °FPassing clouds.12 mph89%29.97 "Hg6 mi
4:45 AM77 °FClear.12 mph83%29.95 "Hg7 mi
3:48 AM79 °FClear.8 mph79%29.92 "Hg7 mi
2:45 AM79 °FClear.12 mph79%29.94 "Hg7 mi
1:45 AM81 °FClear.14 mph70%29.95 "Hg7 mi
12:47 AM82 °FClear.15 mph66%29.94 "Hg7 mi
11:44 PM
Mon, May 25
84 °FClear.18 mph58%29.97 "Hg7 mi
9:45 PM90 °FClear.17 mph43%29.90 "Hg7 mi
7:46 PM95 °FScattered clouds.13 mph34%29.87 "Hg7 mi
4:45 PM100 °FScattered clouds.20 mph27%29.86 "Hg7 mi
3:45 PM102 °FScattered clouds.23 mph26%29.88 "Hg7 mi
2:45 PM102 °FBroken clouds.24 mph29%29.90 "Hg7 mi
1:53 PM99 °FScattered clouds.12 mph33%29.92 "Hg7 mi
12:42 PM97 °FScattered clouds.20 mph34%29.94 "Hg7 mi
11:45 AM95 °FScattered clouds.14 mph39%29.96 "Hg7 mi
Weather by CustomWeather, © 2015

See weather overviewHow to use our weather pages